Shreveport, LA

6:54 AM CST on February 08, 2016 (GMT -0600)
Shreveport Regional

Weather History for KSHV - June, 2013

Change the Weather History Date:

Thursday, June 27, 2013

  Actual Average Record
Temperature  
Mean Temperature 86 °F 82 °F  
Max Temperature 96 °F 92 °F 102 °F (1875)
Min Temperature 76 °F 72 °F 57 °F (1974)
Degree Days  
Heating Degree Days 0 0  
Month to date heating degree days 0 0  
Since 1 June heating degree days 0 0  
Since 1 July heating degree days 2081 2226  
Cooling Degree Days 21 17  
Month to date cooling degree days 439 394  
Year to date cooling degree days 826 792  
Since 1 June cooling degree days 439 394  
Growing Degree Days 36 (Base 50)    
Moisture  
Dew Point 73 °F    
Average Humidity 72    
Maximum Humidity 94    
Minimum Humidity 49    
Precipitation  
Precipitation 0.00 in 0.16 in 6.91 in (1986)
Month to date precipitation 7.75 4.90  
Year to date precipitation 24.60 27.11  
Snow  
Snow 0.00 in - - ()
Month to date snowfall 0.0  
Since 1 June snowfall 0.0  
Since 1 July snowfall 0.1  
Snow Depth 0.00 in    
Sea Level Pressure  
Sea Level Pressure 29.95 in    
Wind  
Wind Speed 7 mph (SSW)    
Max Wind Speed 13 mph    
Max Gust Speed 18 mph    
Visibility 10 miles    
Events      
T = Trace of Precipitation, MM = Missing Value Source: NWS Daily Summary

Daily Weather History Graph

Daily Weather History Graph

Search for Another Location

Airport or City:

Trip Planner

Search our weather history database for the weather conditions in past years. The results will help you decide how hot, cold, wet, or windy it might be!

Date:

Astronomy

Jun. 27, 2013 Rise Set
Actual Time 6:10 AM CDT 8:26 PM CDT
Civil Twilight 5:41 AM CDT 8:54 PM CDT
Nautical Twilight 5:07 AM CDT 9:29 PM CDT
Astronomical Twilight 4:29 AM CDT 10:07 PM CDT
Moon 11:43 PM CDT (6/27) 10:55 AM CDT (6/27)
Length of Visible Light 15h 13m
Length of Day
14h 16m
Waning Gibbous, 76% of the Moon is Illuminated
Jun 27
Waning Gibbous
Jun 29
Last Quarter
Jul 8
New
Jul 15
First Quarter
Jul 22
Full

Hourly Weather History & Observations

Time (CDT) Temp. Heat Index Dew Point Humidity Pressure Visibility Wind Dir Wind Speed Gust Speed Precip Events Conditions
12:56 AM 81.0 °F 85.2 °F 72.0 °F 74% 29.93 in 10.0 mi SSW 8.1 mph - N/A   Clear
1:56 AM 80.1 °F 84.2 °F 73.0 °F 79% 29.93 in 10.0 mi SSW 9.2 mph - N/A   Clear
2:56 AM 79.0 °F - 72.0 °F 79% 29.94 in 10.0 mi SSW 9.2 mph - N/A   Clear
3:56 AM 78.1 °F - 72.0 °F 81% 29.95 in 10.0 mi SSW 6.9 mph - N/A   Clear
4:56 AM 77.0 °F - 72.0 °F 84% 29.97 in 10.0 mi SSW 4.6 mph - N/A   Clear
5:56 AM 75.9 °F - 73.0 °F 91% 29.99 in 10.0 mi SSW 5.8 mph - N/A   Clear
6:56 AM 75.9 °F - 73.0 °F 91% 30.00 in 8.0 mi SW 4.6 mph - N/A   Clear
7:56 AM 78.1 °F - 73.9 °F 87% 30.00 in 7.0 mi SW 8.1 mph - N/A   Partly Cloudy
8:56 AM 82.0 °F 87.9 °F 73.9 °F 76% 30.00 in 7.0 mi SW 11.5 mph - N/A   Partly Cloudy
9:56 AM 84.9 °F 90.7 °F 72.0 °F 65% 30.01 in 10.0 mi WSW 12.7 mph - N/A   Scattered Clouds
10:56 AM 88.0 °F 95.6 °F 73.0 °F 61% 30.00 in 10.0 mi WSW 10.4 mph - N/A   Mostly Cloudy
11:56 AM 90.0 °F 97.9 °F 73.0 °F 57% 29.97 in 10.0 mi WSW 9.2 mph - N/A   Mostly Cloudy
12:56 PM 91.9 °F 101.3 °F 73.9 °F 55% 29.97 in 10.0 mi SW 9.2 mph 18.4 mph N/A   Mostly Cloudy
1:56 PM 93.9 °F 103.4 °F 73.0 °F 51% 29.96 in 10.0 mi Variable 6.9 mph - N/A   Scattered Clouds
2:56 PM 93.9 °F 103.4 °F 73.0 °F 51% 29.94 in 10.0 mi SSW 4.6 mph - N/A   Scattered Clouds
3:56 PM 95.0 °F 104.5 °F 73.0 °F 49% 29.93 in 10.0 mi SSE 6.9 mph - N/A   Mostly Cloudy
4:56 PM 93.9 °F 103.4 °F 73.0 °F 51% 29.92 in 10.0 mi South 5.8 mph - N/A   Mostly Cloudy
5:56 PM 93.9 °F 103.4 °F 73.0 °F 51% 29.91 in 10.0 mi SSW 4.6 mph - N/A   Mostly Cloudy
6:56 PM 91.9 °F 103.2 °F 75.0 °F 58% 29.90 in 10.0 mi South 4.6 mph - N/A   Mostly Cloudy
7:56 PM 89.1 °F 99.1 °F 75.0 °F 63% 29.90 in 10.0 mi South 5.8 mph - N/A   Mostly Cloudy
8:56 PM 82.9 °F 90.8 °F 75.9 °F 79% 29.88 in 10.0 mi South 3.5 mph - N/A   Mostly Cloudy
9:56 PM 84.9 °F 93.3 °F 75.0 °F 72% 29.89 in 10.0 mi South 4.6 mph - N/A   Scattered Clouds
10:56 PM 84.0 °F 90.2 °F 73.0 °F 69% 29.91 in 10.0 mi SSW 5.8 mph - N/A   Scattered Clouds
11:56 PM 79.0 °F - 73.9 °F 84% 29.94 in 10.0 mi SSW 3.5 mph - N/A   Partly Cloudy